CW8429 Weather Reports


Display with metric or nautical units.
time (UTC)temp
F
wind
direction
speed
MPH
gust
MPH
rain 1hr
in
rain 24hr
in
rain mn
in
humidity
%
barometer
mb
20260906122617 58 310 1.0 4.0 0.00 0.00 0.00 40 1017.3
20260906121627 60 194 1.0 4.0 0.00 0.00 0.00 36 1017.3
20260906120618 59 186 3.0 7.0 0.00 0.00 0.00 37 1017.3
20260906115621 58 255 1.0 7.0 0.00 0.00 0.00 38 1017.3
20260906114616 57 243 2.0 4.0 0.00 0.00 0.00 39 1017.3
20260906113628 57 167 0.0 4.0 0.00 0.00 0.00 39 1017.5
20260906112619 57 159 0.0 3.0 0.00 0.00 0.00 37 1017.4
20260906111636 58 159 2.0 6.0 0.00 0.00 0.00 36 1017.4
20260906110647 59 174 3.0 4.0 0.00 0.00 0.00 34 1017.5
20260906105650 60 174 1.0 4.0 0.00 0.00 0.00 33 1017.5
20260906104620 61 174 1.0 3.0 0.00 0.00 0.00 32 1017.4
20260906103631 61 174 3.0 5.0 0.00 0.00 0.00 31 1017.3
20260906102627 61 161 2.0 6.0 0.00 0.00 0.00 32 1017.2
20260906101618 60 161 5.0 6.0 0.00 0.00 0.00 33 1017.2
20260906100629 58 128 4.0 5.0 0.00 0.00 0.00 34 1017.2
20260906095653 58 127 3.0 5.0 0.00 0.00 0.00 33 1017.3
20260906094626 59 126 3.0 6.0 0.00 0.00 0.00 33 1017.0
20260906093637 59 117 3.0 6.0 0.00 0.00 0.00 33 1016.9
20260906092627 59 117 3.0 6.0 0.00 0.00 0.00 33 1016.9
20260906091618 60 116 3.0 6.0 0.00 0.00 0.00 33 1016.9
20260906090635 59 114 2.0 6.0 0.00 0.00 0.00 33 1016.8
20260906085617 59 325 2.0 3.0 0.00 0.00 0.00 33 1016.9
20260906084628 60 325 1.0 4.0 0.00 0.00 0.00 34 1016.8
20260906083619 60 323 2.0 5.0 0.00 0.00 0.00 34 1016.8
20260906082614 61 348 4.0 6.0 0.00 0.00 0.00 33 1016.7
20260906081626 61 256 0.0 4.0 0.00 0.00 0.00 32 1016.8
20260906080637 61 202 1.0 4.0 0.00 0.00 0.00 31 1016.9
20260906075620 61 204 0.0 3.0 0.00 0.00 0.00 32 1016.9
20260906074615 62 204 0.0 3.0 0.00 0.00 0.00 30 1016.9
20260906073626 61 204 2.0 4.0 0.00 0.00 0.00 31 1016.9
20260906072616 61 150 2.0 4.0 0.00 0.00 0.00 34 1016.9
20260906071627 62 140 0.0 3.0 0.00 0.00 0.00 31 1016.9
20260906070622 62 140 2.0 5.0 0.00 0.00 0.00 30 1016.9
20260906065626 62 140 2.0 7.0 0.00 0.00 0.00 30 1017.0
20260906064617 61 137 4.0 8.0 0.00 0.00 0.00 31 1016.9
20260906063613 60 107 6.0 9.0 0.00 0.00 0.00 33 1017.0
20260906062623 60 118 0.0 6.0 0.00 0.00 0.00 33 1017.0
20260906061614 59 116 5.0 8.0 0.00 0.00 0.00 34 1016.9
20260906060630 59 182 3.0 4.0 0.00 0.00 0.00 34 1017.0
20260906055629 59 271 0.0 1.0 0.00 0.00 0.00 35 1017.1
20260906054623 59 271 0.0 3.0 0.00 0.00 0.00 36 1016.9
20260906053631 60 271 2.0 4.0 0.00 0.00 0.00 35 1016.9
20260906052622 62 256 2.0 4.0 0.00 0.00 0.00 33 1016.9
20260906051614 64 236 4.0 10.0 0.00 0.00 0.00 29 1016.9
20260906050628 64 175 5.0 7.0 0.00 0.00 0.00 29 1016.9
20260906045650 66 242 2.0 10.0 0.00 0.00 0.00 27 1017.0
20260906044618 67 119 7.0 11.0 0.00 0.00 0.00 25 1017.0
20260906043627 67 80 8.0 12.0 0.00 0.00 0.00 25 1017.0
20260906042622 67 163 7.0 11.0 0.00 0.00 0.00 25 1017.0
20260906041613 67 86 8.0 13.0 0.00 0.00 0.00 25 1016.9
20260906040623 66 112 7.0 11.0 0.00 0.00 0.00 26 1016.7
20260906035646 67 134 6.0 9.0 0.00 0.00 0.00 26 1016.7
20260906034619 67 116 6.0 11.0 0.00 0.00 0.00 25 1016.6
20260906033630 67 115 9.0 13.0 0.00 0.00 0.00 25 1016.4
20260906032619 67 118 10.0 12.0 0.00 0.00 0.00 25 1016.5
20260906031647 67 82 8.0 11.0 0.00 0.00 0.00 25 1016.5
20260906030620 67 113 8.0 10.0 0.00 0.00 0.00 25 1016.3
20260906025622 68 117 8.0 10.0 0.00 0.00 0.00 25 1016.2
20260906024612 69 119 6.0 9.0 0.00 0.00 0.00 24 1016.3
20260906023622 69 121 7.0 9.0 0.00 0.00 0.00 24 1016.1
20260906022637 71 120 5.0 8.0 0.00 0.00 0.00 23 1016.0
20260906021648 71 135 4.0 7.0 0.00 0.00 0.00 22 1015.9
20260906020618 72 126 5.0 7.0 0.00 0.00 0.00 22 1015.9
20260906015621 73 143 3.0 5.0 0.00 0.00 0.00 22 1015.9
20260906014617 75 143 1.0 4.0 0.00 0.00 0.00 20 1015.9
20260906013649 76 174 0.0 6.0 0.00 0.00 0.00 21 1016.0
20260906012620 76 136 1.0 4.0 0.00 0.00 0.00 20 1016.1
20260906011631 77 238 2.0 5.0 0.00 0.00 0.00 20 1016.2
20260906010625 77 81 2.0 6.0 0.00 0.00 0.00 20 1016.2
20260906005627 77 83 4.0 8.0 0.00 0.00 0.00 18 1016.2
20260906004616 78 196 3.0 8.0 0.00 0.00 0.00 19 1016.1
20260906003625 78 169 3.0 8.0 0.00 0.00 0.00 19 1016.0
20260906002619 79 328 3.0 10.0 0.00 0.00 0.00 18 1016.0
20260906001629 79 196 5.0 13.0 0.00 0.00 0.00 17 1015.9
20260906000621 80 125 4.0 16.0 0.00 0.00 0.00 16 1015.9
20260905235622 80 130 5.0 15.0 0.00 0.00 0.00 16 1016.0
20260905234617 80 157 4.0 12.0 0.00 0.00 0.00 16 1015.9
20260905233626 80 297 6.0 12.0 0.00 0.00 0.00 16 1015.8
20260905232616 81 167 6.0 13.0 0.00 0.00 0.00 15 1015.7
20260905231646 81 89 7.0 14.0 0.00 0.00 0.00 16 1015.7
20260905230619 81 161 5.0 11.0 0.00 0.00 0.00 16 1015.7
20260905225621 81 268 6.0 10.0 0.00 0.00 0.00 16 1015.8
20260905224632 81 103 6.0 12.0 0.00 0.00 0.00 16 1015.7
20260905223622 80 187 6.0 14.0 0.00 0.00 0.00 16 1015.7
20260905222636 81 150 6.0 13.0 0.00 0.00 0.00 17 1015.6
20260905221626 81 150 6.0 12.0 0.00 0.00 0.00 17 1015.8
20260905220615 81 148 7.0 14.0 0.00 0.00 0.00 17 1016.0
20260905215617 80 138 4.0 15.0 0.00 0.00 0.00 16 1016.0
20260905214631 80 170 6.0 15.0 0.00 0.00 0.00 17 1016.1
20260905213622 80 30 7.0 14.0 0.00 0.00 0.00 17 1016.1
20260905212651 81 26 7.0 15.0 0.00 0.00 0.00 16 1016.3
20260905211619 80 18 8.0 13.0 0.00 0.00 0.00 16 1016.3
20260905210634 80 180 5.0 10.0 0.00 0.00 0.00 17 1016.3
20260905205614 80 160 7.0 13.0 0.00 0.00 0.00 17 1016.4
20260905204623 79 168 6.0 15.0 0.00 0.00 0.00 17 1016.4
20260905203613 80 196 7.0 16.0 0.00 0.00 0.00 16 1016.6
20260905202628 80 11 6.0 17.0 0.00 0.00 0.00 16 1016.6
20260905201616 80 308 5.0 15.0 0.00 0.00 0.00 18 1016.7
20260905200624 80 149 6.0 15.0 0.00 0.00 0.00 17 1016.8
20260905195625 79 11 7.0 13.0 0.00 0.00 0.00 17 1016.9
20260905194619 79 178 10.0 18.0 0.00 0.00 0.00 16 1017.1
20260905193629 79 138 6.0 17.0 0.00 0.00 0.00 16 1017.1
20260905192620 79 190 7.0 11.0 0.00 0.00 0.00 17 1017.2
20260905191613 78 172 9.0 18.0 0.00 0.00 0.00 16 1017.4
20260905190622 77 242 4.0 15.0 0.00 0.00 0.00 17 1017.5
20260905185624 78 136 9.0 21.0 0.00 0.00 0.00 17 1017.5
20260905184614 77 136 6.0 18.0 0.00 0.00 0.00 18 1017.3
20260905183628 78 173 7.0 15.0 0.00 0.00 0.00 16 1017.7
20260905182617 78 355 4.0 19.0 0.00 0.00 0.00 18 1017.9
20260905181624 78 191 5.0 12.0 0.00 0.00 0.00 18 1017.8
20260905180623 77 209 5.0 11.0 0.00 0.00 0.00 19 1018.0
20260905175646 77 174 5.0 12.0 0.00 0.00 0.00 19 1018.0
20260905174638 76 173 6.0 13.0 0.00 0.00 0.00 20 1018.2
20260905173627 76 186 6.0 16.0 0.00 0.00 0.00 20 1018.2
20260905172637 75 184 7.0 13.0 0.00 0.00 0.00 21 1018.2
20260905171626 75 123 5.0 11.0 0.00 0.00 0.00 20 1018.2
20260905170619 74 155 8.0 13.0 0.00 0.00 0.00 21 1018.2
20260905165621 75 153 5.0 15.0 0.00 0.00 0.00 21 1018.2
20260905164613 75 83 5.0 11.0 0.00 0.00 0.00 20 1018.2
20260905163624 74 169 7.0 12.0 0.00 0.00 0.00 24 1018.2
20260905162618 74 110 4.0 11.0 0.00 0.00 0.00 26 1018.1
20260905161628 73 166 6.0 11.0 0.00 0.00 0.00 25 1018.0
20260905160619 73 68 5.0 11.0 0.00 0.00 0.00 26 1018.0
20260905155622 73 102 5.0 10.0 0.00 0.00 0.00 26 1018.0
20260905154617 72 136 2.0 11.0 0.00 0.00 0.00 25 1018.0
20260905153627 71 123 3.0 11.0 0.00 0.00 0.00 26 1017.8
20260905152638 70 107 6.0 14.0 0.00 0.00 0.00 26 1018.0
20260905151626 70 92 7.0 13.0 0.00 0.00 0.00 26 1017.8
20260905150619 70 104 9.0 15.0 0.00 0.00 0.00 26 1017.9
20260905145623 68 147 4.0 12.0 0.00 0.00 0.00 27 1017.8
20260905144612 63 186 0.0 4.0 0.00 0.00 0.00 36 1017.9
20260905143623 60 186 0.0 0.0 0.00 0.00 0.00 39 1017.8
20260905142636 58 186 0.0 0.0 0.00 0.00 0.00 40 1017.9
20260905141626 58 186 0.0 0.0 0.00 0.00 0.00 42 1017.8
20260905140615 58 186 0.0 5.0 0.00 0.00 0.00 41 1017.7
20260905135639 58 192 2.0 4.0 0.00 0.00 0.00 41 1017.6
20260905134614 58 196 1.0 3.0 0.00 0.00 0.00 41 1017.5
20260905133626 58 197 1.0 5.0 0.00 0.00 0.00 41 1017.4
20260905132618 58 238 2.0 4.0 0.00 0.00 0.00 41 1017.2
20260905131649 59 305 1.0 5.0 0.00 0.00 0.00 41 1017.2
20260905130623 62 293 2.0 8.0 0.00 0.00 0.00 39 1017.0
20260905125627 67 144 5.0 10.0 0.00 0.00 0.00 29 1016.8
20260905124617 67 148 7.0 10.0 0.00 0.00 0.00 29 1016.7
20260905123628 67 119 6.0 12.0 0.00 0.00 0.00 29 1016.6